,,Stat6,,Stat2,,Stat8,,Stat9,,Stat10,,Wind1,,Wind1,
time,status,PA1M_AVG,status,PR1M_SUM,status,RH1M_AVG,status,SR1M_AVG,status,TA1M_AVG,status,W1dAve1m,status,W1sAve1m,
2008-08-15, 00:00:00,VALID,917.482,VALID,0,VALID,100,VALID,0,VALID,18.9348,VALID,118,VALID,0,
2008-08-15, 00:01:00,VALID,917.47,VALID,0,VALID,100,VALID,0,VALID,18.9213,VALID,109,VALID,0,
2008-08-15, 00:02:00,VALID,917.47,VALID,0,VALID,100,VALID,-0.0169808,VALID,18.9215,VALID,98,VALID,0,
2008-08-15, 00:03:00,VALID,917.442,VALID,0,VALID,100,VALID,0,VALID,18.9223,VALID,99,VALID,0,
2008-08-15, 00:04:00,VALID,917.414,VALID,0,VALID,100,VALID,-0.0339617,VALID,18.9385,VALID,98,VALID,0.135719,
2008-08-15, 00:05:00,VALID,917.401,VALID,0,VALID,100,VALID,0,VALID,18.9223,VALID,92,VALID,0.0573509,
2008-08-15, 00:06:00,VALID,917.387,VALID,0,VALID,100,VALID,0.0169808,VALID,18.8921,VALID,92,VALID,0.495206,
2008-08-15, 00:07:00,VALID,917.36,VALID,0,VALID,100,VALID,0.0169808,VALID,18.8829,VALID,90,VALID,0.0543324,
2008-08-15, 00:08:00,VALID,917.343,VALID,0,VALID,100,VALID,0,VALID,18.8629,VALID,126,VALID,0.889915,
2008-08-15, 00:09:00,VALID,917.304,VALID,0,VALID,100,VALID,0,VALID,18.8435,VALID,144,VALID,0.770703,
2008-08-15, 00:10:00,VALID,917.29,VALID,0,VALID,100,VALID,0.0509425,VALID,18.8342,VALID,140,VALID,0.674419,
2008-08-15, 00:11:00,VALID,917.258,VALID,0,VALID,100,VALID,0.0339617,VALID,18.8247,VALID,146,VALID,0.411399,
2008-08-15, 00:12:00,VALID,917.25,VALID,0,VALID,100,VALID,0,VALID,18.7923,VALID,127,VALID,0.938045,
2008-08-15, 00:13:00,VALID,917.244,VALID,0,VALID,100,VALID,0,VALID,18.7726,VALID,131,VALID,0.171689,
2008-08-15, 00:14:00,VALID,917.249,VALID,0,VALID,100,VALID,0.0169808,VALID,18.7631,VALID,175,VALID,0.313802,
2008-08-15, 00:15:00,VALID,917.258,VALID,0,VALID,100,VALID,-0.0169808,VALID,18.7566,VALID,179,VALID,0,
2008-08-15, 00:16:00,VALID,917.275,VALID,0,VALID,100,VALID,0,VALID,18.7501,VALID,179,VALID,0,
2008-08-15, 00:17:00,VALID,917.307,VALID,0,VALID,100,VALID,-0.0339617,VALID,18.7474,VALID,179,VALID,0,
2008-08-15, 00:18:00,VALID,917.302,VALID,0,VALID,100,VALID,0,VALID,18.7603,VALID,179,VALID,0,
2008-08-15, 00:19:00,VALID,917.332,VALID,0,VALID,100,VALID,0,VALID,18.7469,VALID,179,VALID,0,
2008-08-15, 00:20:00,VALID,917.327,VALID,0,VALID,100,VALID,0,VALID,18.7205,VALID,179,VALID,0,
2008-08-15, 00:21:00,VALID,917.337,VALID,0,VALID,100,VALID,0.0339617,VALID,18.7177,VALID,186,VALID,0,
2008-08-15, 00:22:00,VALID,917.36,VALID,0,VALID,100,VALID,-0.0169808,VALID,18.7311,VALID,282,VALID,0.0987216,
2008-08-15, 00:23:00,VALID,917.365,VALID,0,VALID,100,VALID,0,VALID,18.7177,VALID,281,VALID,0.63101,
2008-08-15, 00:24:00,VALID,917.378,VALID,0,VALID,100,VALID,0,VALID,18.7114,VALID,281,VALID,0.350991,
2008-08-15, 00:25:00,VALID,917.378,VALID,0,VALID,100,VALID,0.0169808,VALID,18.7175,VALID,255,VALID,0,
2008-08-15, 00:26:00,VALID,917.389,VALID,0,VALID,100,VALID,0,VALID,18.7042,VALID,224,VALID,0,
2008-08-15, 00:27:00,VALID,917.379,VALID,0,VALID,100,VALID,0.0169808,VALID,18.6948,VALID,215,VALID,0,
2008-08-15, 00:28:00,VALID,917.354,VALID,0,VALID,100,VALID,-0.0169808,VALID,18.7047,VALID,195,VALID,0,
2008-08-15, 00:29:00,VALID,917.341,VALID,0,VALID,100,VALID,0,VALID,18.7247,VALID,189,VALID,0,
2008-08-15, 00:30:00,VALID,917.319,VALID,0,VALID,100,VALID,-0.0339617,VALID,18.7339,VALID,188,VALID,0,
2008-08-15, 00:31:00,VALID,917.313,VALID,0,VALID,100,VALID,0.0169808,VALID,18.7307,VALID,146,VALID,0.0635901,
2008-08-15, 00:32:00,VALID,917.295,VALID,0,VALID,100,VALID,0,VALID,18.7105,VALID,119,VALID,0,
2008-08-15, 00:33:00,VALID,917.299,VALID,0,VALID,100,VALID,0,VALID,18.714,VALID,134,VALID,0,
2008-08-15, 00:34:00,VALID,917.282,VALID,0,VALID,100,VALID,0.0169808,VALID,18.7497,VALID,145,VALID,0,
2008-08-15, 00:35:00,VALID,917.274,VALID,0,VALID,100,VALID,-0.0169808,VALID,18.7761,VALID,146,VALID,0.0218349,
2008-08-15, 00:36:00,VALID,917.253,VALID,0,VALID,100,VALID,0,VALID,18.7721,VALID,149,VALID,0.896802,
2008-08-15, 00:37:00,VALID,917.253,VALID,0,VALID,100,VALID,-0.0169808,VALID,18.8118,VALID,155,VALID,1.50484,
2008-08-15, 00:38:00,VALID,917.233,VALID,0,VALID,100,VALID,0.0169808,VALID,18.8472,VALID,155,VALID,1.25724,
2008-08-15, 00:39:00,VALID,917.209,VALID,0,VALID,100,VALID,0,VALID,18.8734,VALID,155,VALID,1.18266,
2008-08-15, 00:40:00,VALID,917.184,VALID,0,VALID,100,VALID,0.0169808,VALID,18.8824,VALID,154,VALID,1.26653,
2008-08-15, 00:41:00,VALID,917.171,VALID,0,VALID,100,VALID,0.0169808,VALID,18.922,VALID,153,VALID,1.0959,
2008-08-15, 00:42:00,VALID,917.157,VALID,0,VALID,100,VALID,0,VALID,18.932,VALID,148,VALID,0.799479,
2008-08-15, 00:43:00,VALID,917.15,VALID,0,VALID,100,VALID,-0.0169808,VALID,18.9412,VALID,132,VALID,0.95258,
2008-08-15, 00:44:00,VALID,917.139,VALID,0,VALID,100,VALID,-0.0169808,VALID,18.9355,VALID,122,VALID,0.65483,
2008-08-15, 00:45:00,VALID,917.139,VALID,0,VALID,100,VALID,-0.0169808,VALID,18.8866,VALID,109,VALID,0,
2008-08-15, 00:46:00,VALID,917.161,VALID,0,VALID,100,VALID,-0.0509425,VALID,18.8507,VALID,107,VALID,0,
2008-08-15, 00:47:00,VALID,917.159,VALID,0,VALID,100,VALID,-0.0169808,VALID,18.8247,VALID,107,VALID,0,
2008-08-15, 00:48:00,VALID,917.163,VALID,0,VALID,100,VALID,0,VALID,18.8222,VALID,109,VALID,0,
2008-08-15, 00:49:00,VALID,917.151,VALID,0,VALID,100,VALID,0,VALID,18.8185,VALID,101,VALID,0,
2008-08-15, 00:50:00,VALID,917.165,VALID,0,VALID,100,VALID,0,VALID,18.8155,VALID,100,VALID,0,
2008-08-15, 00:51:00,VALID,917.155,VALID,0,VALID,100,VALID,0,VALID,18.8046,VALID,100,VALID,0,
2008-08-15, 00:52:00,VALID,917.165,VALID,0,VALID,100,VALID,0,VALID,18.8182,VALID,100,VALID,0,
2008-08-15, 00:53:00,VALID,917.178,VALID,0,VALID,100,VALID,0.0169808,VALID,18.8113,VALID,100,VALID,0,
2008-08-15, 00:54:00,VALID,917.184,VALID,0,VALID,100,VALID,0,VALID,18.8284,VALID,100,VALID,0,
2008-08-15, 00:55:00,VALID,917.187,VALID,0,VALID,100,VALID,0,VALID,18.828,VALID,100,VALID,0,
2008-08-15, 00:56:00,VALID,917.179,VALID,0,VALID,100,VALID,0,VALID,18.8212,VALID,61,VALID,0,
2008-08-15, 00:57:00,VALID,917.173,VALID,0,VALID,100,VALID,0.0169808,VALID,18.831,VALID,348,VALID,0,
2008-08-15, 00:58:00,VALID,917.156,VALID,0,VALID,100,VALID,-0.0169808,VALID,18.8118,VALID,274,VALID,0,
2008-08-15, 00:59:00,VALID,917.136,VALID,0,VALID,100,VALID,0,VALID,18.7758,VALID,274,VALID,0,
2008-08-15, 01:00:00,VALID,917.125,VALID,0,VALID,100,VALID,0,VALID,18.7629,VALID,273,VALID,0,
2008-08-15, 01:01:00,VALID,917.088,VALID,0,VALID,100,VALID,0.0339617,VALID,18.7529,VALID,273,VALID,0,
2008-08-15, 01:02:00,VALID,917.07,VALID,0,VALID,100,VALID,0.0339617,VALID,18.7497,VALID,241,VALID,0,
2008-08-15, 01:03:00,VALID,917.053,VALID,0,VALID,100,VALID,0.0509425,VALID,18.7235,VALID,182,VALID,0,
2008-08-15, 01:04:00,VALID,917.024,VALID,0,VALID,100,VALID,0.0339617,VALID,18.7038,VALID,164,VALID,0,
2008-08-15, 01:05:00,VALID,917.004,VALID,0,VALID,100,VALID,0.0169808,VALID,18.6883,VALID,158,VALID,0,
2008-08-15, 01:06:00,VALID,917.01,VALID,0,VALID,100,VALID,-0.0169808,VALID,18.6658,VALID,157,VALID,0,
2008-08-15, 01:07:00,VALID,916.999,VALID,0,VALID,100,VALID,0.0339617,VALID,18.6426,VALID,157,VALID,0,
2008-08-15, 01:08:00,VALID,916.998,VALID,0,VALID,100,VALID,0.0169808,VALID,18.6292,VALID,158,VALID,0.836496,
2008-08-15, 01:09:00,VALID,916.997,VALID,0,VALID,100,VALID,0.0339617,VALID,18.6227,VALID,156,VALID,0.758333,
2008-08-15, 01:10:00,VALID,916.984,VALID,0,VALID,100,VALID,0.0339617,VALID,18.6391,VALID,150,VALID,0.919922,
2008-08-15, 01:11:00,VALID,916.964,VALID,0,VALID,100,VALID,0,VALID,18.6466,VALID,155,VALID,0.792411,
2008-08-15, 01:12:00,VALID,916.936,VALID,0,VALID,100,VALID,0.0169808,VALID,18.6424,VALID,151,VALID,0.905362,
2008-08-15, 01:13:00,VALID,916.905,VALID,0,VALID,100,VALID,0.0339617,VALID,18.6519,VALID,148,VALID,0.507241,
2008-08-15, 01:14:00,VALID,916.869,VALID,0,VALID,100,VALID,0.0169808,VALID,18.6551,VALID,142,VALID,0.285792,
2008-08-15, 01:15:00,VALID,916.846,VALID,0,VALID,100,VALID,0.0169808,VALID,18.6713,VALID,137,VALID,0,
2008-08-15, 01:16:00,VALID,916.825,VALID,0,VALID,100,VALID,0.0339617,VALID,18.6778,VALID,143,VALID,0,
2008-08-15, 01:17:00,VALID,916.825,VALID,0,VALID,100,VALID,0.0169808,VALID,18.6846,VALID,139,VALID,0,
2008-08-15, 01:18:00,VALID,916.812,VALID,0,VALID,100,VALID,-0.0169808,VALID,18.6878,VALID,136,VALID,0,
2008-08-15, 01:19:00,VALID,916.825,VALID,0,VALID,100,VALID,0.0509425,VALID,18.688,VALID,135,VALID,0,
2008-08-15, 01:20:00,VALID,916.831,VALID,0,VALID,100,VALID,0,VALID,18.6753,VALID,135,VALID,0,
2008-08-15, 01:21:00,VALID,916.823,VALID,0,VALID,100,VALID,0.0169808,VALID,18.6823,VALID,135,VALID,0,
2008-08-15, 01:22:00,VALID,916.826,VALID,0,VALID,100,VALID,0.0169808,VALID,18.6651,VALID,135,VALID,0,
2008-08-15, 01:23:00,VALID,916.807,VALID,0,VALID,100,VALID,0,VALID,18.6658,VALID,135,VALID,0,
2008-08-15, 01:24:00,VALID,916.796,VALID,0,VALID,100,VALID,-0.0169808,VALID,18.6431,VALID,135,VALID,0,
2008-08-15, 01:25:00,VALID,916.773,VALID,0,VALID,100,VALID,0,VALID,18.6236,VALID,135,VALID,0,
2008-08-15, 01:26:00,VALID,916.759,VALID,0,VALID,100,VALID,0,VALID,18.6169,VALID,135,VALID,0,
2008-08-15, 01:27:00,VALID,916.731,VALID,0,VALID,100,VALID,0,VALID,18.5972,VALID,135,VALID,0,
2008-08-15, 01:28:00,VALID,916.716,VALID,0,VALID,100,VALID,0.0169808,VALID,18.5942,VALID,135,VALID,0,
2008-08-15, 01:29:00,VALID,916.7,VALID,0,VALID,100,VALID,0,VALID,18.571,VALID,135,VALID,0,
2008-08-15, 01:30:00,VALID,916.708,VALID,0,VALID,100,VALID,0.0339617,VALID,18.5678,VALID,135,VALID,0,
2008-08-15, 01:31:00,VALID,916.709,VALID,0,VALID,100,VALID,0.0339617,VALID,18.5618,VALID,135,VALID,0,
2008-08-15, 01:32:00,VALID,916.713,VALID,0,VALID,100,VALID,0.0509425,VALID,18.5548,VALID,135,VALID,0,
2008-08-15, 01:33:00,VALID,916.7,VALID,0,VALID,100,VALID,0.0169808,VALID,18.5546,VALID,132,VALID,0,
2008-08-15, 01:34:00,VALID,916.703,VALID,0,VALID,100,VALID,0.0169808,VALID,18.581,VALID,133,VALID,0,
2008-08-15, 01:35:00,VALID,916.693,VALID,0,VALID,100,VALID,0.0169808,VALID,18.5907,VALID,130,VALID,0,
2008-08-15, 01:36:00,VALID,916.691,VALID,0,VALID,100,VALID,0,VALID,18.5775,VALID,118,VALID,0,
2008-08-15, 01:37:00,VALID,916.696,VALID,0,VALID,100,VALID,0,VALID,18.5514,VALID,116,VALID,0,
2008-08-15, 01:38:00,VALID,916.706,VALID,0,VALID,100,VALID,0.0679233,VALID,18.5321,VALID,125,VALID,0,
2008-08-15, 01:39:00,VALID,916.701,VALID,0,VALID,100,VALID,0,VALID,18.5222,VALID,125,VALID,0,
2008-08-15, 01:40:00,VALID,916.727,VALID,0,VALID,100,VALID,0.0169808,VALID,18.5356,VALID,128,VALID,0,
2008-08-15, 01:41:00,VALID,916.746,VALID,0,VALID,100,VALID,0.0339617,VALID,18.5256,VALID,136,VALID,0,
2008-08-15, 01:42:00,VALID,916.745,VALID,0,VALID,100,VALID,0.0509425,VALID,18.4934,VALID,135,VALID,0,
2008-08-15, 01:43:00,VALID,916.749,VALID,0,VALID,100,VALID,0.0509425,VALID,18.4707,VALID,135,VALID,0,
2008-08-15, 01:44:00,VALID,916.752,VALID,0,VALID,100,VALID,0,VALID,18.4411,VALID,135,VALID,0,
2008-08-15, 01:45:00,VALID,916.745,VALID,0,VALID,100,VALID,0.0339617,VALID,18.4184,VALID,135,VALID,0,
2008-08-15, 01:46:00,VALID,916.743,VALID,0,VALID,100,VALID,0.0339617,VALID,18.3762,VALID,33,VALID,0,
2008-08-15, 01:47:00,VALID,916.736,VALID,0,VALID,100,VALID,0.0169808,VALID,18.3899,VALID,358,VALID,0,
2008-08-15, 01:48:00,VALID,916.732,VALID,0,VALID,100,VALID,0.0339617,VALID,18.3862,VALID,358,VALID,0,
2008-08-15, 01:49:00,VALID,916.738,VALID,0,VALID,100,VALID,0.0169808,VALID,18.3989,VALID,358,VALID,0,
2008-08-15, 01:50:00,VALID,916.733,VALID,0,VALID,100,VALID,-0.0169808,VALID,18.3894,VALID,358,VALID,0,
2008-08-15, 01:51:00,VALID,916.724,VALID,0,VALID,100,VALID,0,VALID,18.3834,VALID,358,VALID,0,
2008-08-15, 01:52:00,VALID,916.716,VALID,0,VALID,100,VALID,-0.0169808,VALID,18.3867,VALID,358,VALID,0,
2008-08-15, 01:53:00,VALID,916.714,VALID,0,VALID,100,VALID,-0.0169808,VALID,18.4249,VALID,358,VALID,0,
2008-08-15, 01:54:00,VALID,916.693,VALID,0,VALID,100,VALID,-0.0339617,VALID,18.4578,VALID,358,VALID,0,
2008-08-15, 01:55:00,VALID,916.689,VALID,0,VALID,100,VALID,-0.0169808,VALID,18.4446,VALID,358,VALID,0,
2008-08-15, 01:56:00,VALID,916.686,VALID,0,VALID,100,VALID,0.0509425,VALID,18.4219,VALID,358,VALID,0,
2008-08-15, 01:57:00,VALID,916.695,VALID,0,VALID,100,VALID,0,VALID,18.3633,VALID,358,VALID,0,
2008-08-15, 01:58:00,VALID,916.7,VALID,0,VALID,100,VALID,0,VALID,18.2986,VALID,358,VALID,0,
2008-08-15, 01:59:00,VALID,916.703,VALID,0,VALID,100,VALID,-0.0169808,VALID,18.1979,VALID,358,VALID,0,
2008-08-15, 02:00:00,VALID,916.72,VALID,0,VALID,100,VALID,0.0169808,VALID,18.1365,VALID,359,VALID,0,
2008-08-15, 02:01:00,VALID,916.724,VALID,0,VALID,100,VALID,0,VALID,18.1235,VALID,4,VALID,0,
2008-08-15, 02:02:00,VALID,916.705,VALID,0,VALID,100,VALID,0,VALID,18.1851,VALID,4,VALID,0,
2008-08-15, 02:03:00,VALID,916.697,VALID,0,VALID,100,VALID,0,VALID,18.2857,VALID,30,VALID,0,
2008-08-15, 02:04:00,VALID,916.667,VALID,0,VALID,100,VALID,-0.0169808,VALID,18.3605,VALID,37,VALID,0,
2008-08-15, 02:05:00,VALID,916.642,VALID,0,VALID,100,VALID,-0.0509425,VALID,18.4089,VALID,67,VALID,0,
2008-08-15, 02:06:00,VALID,916.622,VALID,0,VALID,100,VALID,-0.0339617,VALID,18.4316,VALID,90,VALID,0,
2008-08-15, 02:07:00,VALID,916.617,VALID,0,VALID,100,VALID,0,VALID,18.4284,VALID,94,VALID,0,
2008-08-15, 02:08:00,VALID,916.612,VALID,0,VALID,100,VALID,0,VALID,18.3957,VALID,107,VALID,0,
2008-08-15, 02:09:00,VALID,916.607,VALID,0,VALID,100,VALID,0,VALID,18.3667,VALID,121,VALID,0,
2008-08-15, 02:10:00,VALID,916.607,VALID,0,VALID,100,VALID,-0.0169808,VALID,18.3535,VALID,130,VALID,0,
2008-08-15, 02:11:00,VALID,916.605,VALID,0,VALID,100,VALID,0,VALID,18.3345,VALID,143,VALID,0,
2008-08-15, 02:12:01,VALID,916.608,VALID,0,VALID,100,VALID,0.0169808,VALID,18.3211,VALID,144,VALID,0,
2008-08-15, 02:13:00,VALID,916.601,VALID,0,VALID,100,VALID,0.0339617,VALID,18.3146,VALID,144,VALID,0,
2008-08-15, 02:14:00,VALID,916.599,VALID,0,VALID,100,VALID,0,VALID,18.3276,VALID,144,VALID,0,
2008-08-15, 02:15:00,VALID,916.58,VALID,0,VALID,100,VALID,0,VALID,18.344,VALID,155,VALID,0,
2008-08-15, 02:16:01,VALID,916.562,VALID,0,VALID,100,VALID,0.0169808,VALID,18.3862,VALID,162,VALID,0,
2008-08-15, 02:17:00,VALID,916.548,VALID,0,VALID,100,VALID,0,VALID,18.4121,VALID,162,VALID,0,
2008-08-15, 02:18:00,VALID,916.516,VALID,0,VALID,100,VALID,0,VALID,18.4087,VALID,161,VALID,0,
2008-08-15, 02:19:00,VALID,916.484,VALID,0,VALID,100,VALID,0.0169808,VALID,18.386,VALID,160,VALID,0,
2008-08-15, 02:20:00,VALID,916.445,VALID,0,VALID,100,VALID,-0.0169808,VALID,18.36,VALID,159,VALID,0,
2008-08-15, 02:21:00,VALID,916.416,VALID,0,VALID,100,VALID,-0.0169808,VALID,18.3341,VALID,155,VALID,0,
2008-08-15, 02:22:00,VALID,916.386,VALID,0,VALID,100,VALID,-0.0169808,VALID,18.3341,VALID,157,VALID,0,
2008-08-15, 02:23:00,VALID,916.358,VALID,0,VALID,100,VALID,0,VALID,18.3244,VALID,159,VALID,0,
2008-08-15, 02:24:01,VALID,916.353,VALID,0,VALID,100,VALID,0,VALID,18.3179,VALID,161,VALID,0,
2008-08-15, 02:25:01,VALID,916.345,VALID,0,VALID,100,VALID,-0.0339617,VALID,18.3216,VALID,161,VALID,0.0523256,
2008-08-15, 02:26:01,VALID,916.335,VALID,0,VALID,100,VALID,0,VALID,18.3149,VALID,160,VALID,0,
2008-08-15, 02:27:00,VALID,916.317,VALID,0,VALID,100,VALID,0,VALID,18.3213,VALID,165,VALID,0,
2008-08-15, 02:28:01,VALID,916.314,VALID,0,VALID,100,VALID,0,VALID,18.3058,VALID,160,VALID,0.0888672,
2008-08-15, 02:29:00,VALID,916.297,VALID,0,VALID,100,VALID,0.0339617,VALID,18.279,VALID,153,VALID,0,
2008-08-15, 02:30:00,VALID,916.293,VALID,0,VALID,100,VALID,0,VALID,18.2595,VALID,150,VALID,0,
2008-08-15, 02:31:00,VALID,916.27,VALID,0,VALID,100,VALID,-0.0339617,VALID,18.247,VALID,142,VALID,0,
2008-08-15, 02:32:01,VALID,916.271,VALID,0,VALID,100,VALID,-0.0169808,VALID,18.25,VALID,137,VALID,0,
2008-08-15, 02:33:01,VALID,916.274,VALID,0,VALID,100,VALID,-0.0169808,VALID,18.2273,VALID,135,VALID,0,
2008-08-15, 02:34:01,VALID,916.28,VALID,0,VALID,100,VALID,0,VALID,18.2111,VALID,135,VALID,0,
2008-08-15, 02:35:00,VALID,916.278,VALID,0,VALID,100,VALID,-0.0169808,VALID,18.2076,VALID,136,VALID,0,
2008-08-15, 02:36:01,VALID,916.254,VALID,0,VALID,100,VALID,-0.0169808,VALID,18.2011,VALID,136,VALID,0,
2008-08-15, 02:37:01,VALID,916.256,VALID,0,VALID,100,VALID,-0.0169808,VALID,18.1946,VALID,147,VALID,0.280362,
2008-08-15, 02:38:00,VALID,916.247,VALID,0,VALID,100,VALID,-0.0169808,VALID,18.1817,VALID,148,VALID,0.387835,
2008-08-15, 02:39:00,VALID,916.236,VALID,0,VALID,100,VALID,-0.0169808,VALID,18.1819,VALID,144,VALID,0.172053,
2008-08-15, 02:40:00,VALID,916.239,VALID,0,VALID,100,VALID,0,VALID,18.1655,VALID,141,VALID,0,
2008-08-15, 02:41:00,VALID,916.229,VALID,0,VALID,100,VALID,0,VALID,18.1722,VALID,133,VALID,0,
2008-08-15, 02:42:00,VALID,916.223,VALID,0,VALID,100,VALID,0,VALID,18.1655,VALID,124,VALID,0,
2008-08-15, 02:43:01,VALID,916.221,VALID,0,VALID,100,VALID,0,VALID,18.1523,VALID,124,VALID,0,
2008-08-15, 02:44:01,VALID,916.218,VALID,0,VALID,100,VALID,0.0169808,VALID,18.1557,VALID,124,VALID,0,
2008-08-15, 02:45:00,VALID,916.217,VALID,0,VALID,100,VALID,0.0169808,VALID,18.1233,VALID,123,VALID,0,
2008-08-15, 02:46:00,VALID,916.212,VALID,0,VALID,100,VALID,0.0169808,VALID,18.0941,VALID,126,VALID,0,
2008-08-15, 02:47:00,VALID,916.206,VALID,0,VALID,100,VALID,0,VALID,18.0907,VALID,133,VALID,0,
2008-08-15, 02:48:00,VALID,916.196,VALID,0,VALID,100,VALID,-0.0169808,VALID,18.0879,VALID,134,VALID,0,
2008-08-15, 02:49:00,VALID,916.175,VALID,0,VALID,100,VALID,0,VALID,18.0779,VALID,134,VALID,0,
2008-08-15, 02:50:00,VALID,916.176,VALID,0,VALID,100,VALID,0,VALID,18.0557,VALID,134,VALID,0,
2008-08-15, 02:51:00,VALID,916.178,VALID,0,VALID,100,VALID,-0.0169808,VALID,18.0723,VALID,134,VALID,0,
2008-08-15, 02:52:00,VALID,916.178,VALID,0,VALID,100,VALID,-0.0169808,VALID,18.0881,VALID,134,VALID,0,
2008-08-15, 02:53:00,VALID,916.167,VALID,0,VALID,100,VALID,-0.0509425,VALID,18.1052,VALID,134,VALID,0,
2008-08-15, 02:54:01,VALID,916.171,VALID,0,VALID,100,VALID,-0.0339617,VALID,18.0983,VALID,134,VALID,0,
2008-08-15, 02:55:01,VALID,916.151,VALID,0,VALID,100,VALID,-0.0169808,VALID,18.092,VALID,134,VALID,0,
2008-08-15, 02:56:01,VALID,916.129,VALID,0,VALID,100,VALID,-0.0679233,VALID,18.0923,VALID,134,VALID,0,
2008-08-15, 02:57:01,VALID,916.124,VALID,0,VALID,100,VALID,-0.101885,VALID,18.089,VALID,134,VALID,0,
2008-08-15, 02:58:01,VALID,916.098,VALID,0,VALID,100,VALID,-0.0169808,VALID,18.095,VALID,134,VALID,0,
2008-08-15, 02:59:01,VALID,916.087,VALID,0,VALID,100,VALID,-0.0849042,VALID,18.0754,VALID,134,VALID,0,
2008-08-15, 03:00:00,VALID,916.083,VALID,0,VALID,100,VALID,-0.0339617,VALID,18.0721,VALID,134,VALID,0,
2008-08-15, 03:01:01,VALID,916.068,VALID,0,VALID,100,VALID,-0.0679233,VALID,18.0883,VALID,134,VALID,0,
2008-08-15, 03:02:00,VALID,916.055,VALID,0,VALID,100,VALID,-0.0509425,VALID,18.102,VALID,134,VALID,0,
2008-08-15, 03:03:00,VALID,916.036,VALID,0,VALID,100,VALID,0,VALID,18.0978,VALID,134,VALID,0,
2008-08-15, 03:04:01,VALID,916.033,VALID,0,VALID,100,VALID,0,VALID,18.1344,VALID,134,VALID,0,
2008-08-15, 03:05:01,VALID,916.029,VALID,0,VALID,100,VALID,0,VALID,18.1664,VALID,134,VALID,0,
2008-08-15, 03:06:00,VALID,916.028,VALID,0,VALID,100,VALID,-0.0169808,VALID,18.1634,VALID,134,VALID,0,
2008-08-15, 03:07:00,VALID,916.034,VALID,0,VALID,100,VALID,-0.0339617,VALID,18.1634,VALID,134,VALID,0,
2008-08-15, 03:08:01,VALID,916.042,VALID,0,VALID,100,VALID,-0.0509425,VALID,18.1601,VALID,134,VALID,0,
2008-08-15, 03:09:01,VALID,916.048,VALID,0,VALID,100,VALID,-0.0169808,VALID,18.1701,VALID,134,VALID,0,
2008-08-15, 03:10:01,VALID,916.065,VALID,0,VALID,100,VALID,0,VALID,18.1761,VALID,134,VALID,0,
2008-08-15, 03:11:01,VALID,916.09,VALID,0,VALID,100,VALID,-0.0679233,VALID,18.1631,VALID,134,VALID,0,
2008-08-15, 03:12:01,VALID,916.109,VALID,0,VALID,100,VALID,0,VALID,18.1205,VALID,127,VALID,0,
2008-08-15, 03:13:01,VALID,916.13,VALID,0,VALID,100,VALID,-0.0509425,VALID,18.1175,VALID,101,VALID,0,
2008-08-15, 03:14:00,VALID,916.134,VALID,0,VALID,100,VALID,-0.0169808,VALID,18.1305,VALID,102,VALID,0,
2008-08-15, 03:15:00,VALID,916.141,VALID,0,VALID,100,VALID,-0.0509425,VALID,18.1305,VALID,121,VALID,0,
2008-08-15, 03:16:00,VALID,916.152,VALID,0,VALID,100,VALID,-0.0509425,VALID,18.1597,VALID,138,VALID,0,
2008-08-15, 03:17:00,VALID,916.159,VALID,0,VALID,100,VALID,-0.0169808,VALID,18.1462,VALID,133,VALID,0,
2008-08-15, 03:18:00,VALID,916.154,VALID,0,VALID,100,VALID,-0.0849042,VALID,18.1372,VALID,149,VALID,0,
2008-08-15, 03:19:00,VALID,916.156,VALID,0,VALID,100,VALID,-0.0509425,VALID,18.124,VALID,150,VALID,0,
2008-08-15, 03:20:00,VALID,916.157,VALID,0,VALID,100,VALID,-0.0339617,VALID,18.1407,VALID,162,VALID,0,
2008-08-15, 03:21:00,VALID,916.145,VALID,0,VALID,100,VALID,-0.0169808,VALID,18.1469,VALID,162,VALID,0,
2008-08-15, 03:22:00,VALID,916.134,VALID,0,VALID,100,VALID,-0.0169808,VALID,18.1631,VALID,157,VALID,0,
2008-08-15, 03:23:00,VALID,916.128,VALID,0,VALID,100,VALID,0,VALID,18.159,VALID,146,VALID,0,
2008-08-15, 03:24:00,VALID,916.112,VALID,0,VALID,100,VALID,0,VALID,18.1657,VALID,143,VALID,0.469494,
2008-08-15, 03:25:00,VALID,916.094,VALID,0,VALID,100,VALID,-0.0509425,VALID,18.1919,VALID,143,VALID,0.882631,
2008-08-15, 03:26:00,VALID,916.08,VALID,0,VALID,100,VALID,-0.0339617,VALID,18.238,VALID,147,VALID,1.19855,
2008-08-15, 03:27:00,VALID,916.059,VALID,0,VALID,100,VALID,-0.0849042,VALID,18.2537,VALID,151,VALID,1.30596,
2008-08-15, 03:28:00,VALID,916.051,VALID,0,VALID,100,VALID,-0.0849042,VALID,18.2704,VALID,157,VALID,1.29457,
2008-08-15, 03:29:00,VALID,916.029,VALID,0,VALID,100,VALID,-0.0849042,VALID,18.2901,VALID,155,VALID,0.996838,
2008-08-15, 03:30:00,VALID,916.004,VALID,0,VALID,100,VALID,-0.0509425,VALID,18.2898,VALID,156,VALID,0.813262,
2008-08-15, 03:31:00,VALID,915.985,VALID,0,VALID,100,VALID,-0.0679233,VALID,18.3125,VALID,148,VALID,0.631925,
2008-08-15, 03:32:00,VALID,915.978,VALID,0,VALID,100,VALID,-0.0509425,VALID,18.3285,VALID,138,VALID,0.616997,
2008-08-15, 03:33:00,VALID,915.958,VALID,0,VALID,100,VALID,-0.0509425,VALID,18.3413,VALID,143,VALID,0.927539,
2008-08-15, 03:34:00,VALID,915.944,VALID,0,VALID,100,VALID,-0.101885,VALID,18.3709,VALID,138,VALID,1.34322,
2008-08-15, 03:35:00,VALID,915.934,VALID,0,VALID,100,VALID,-0.0339617,VALID,18.3869,VALID,128,VALID,1.20257,
2008-08-15, 03:36:00,VALID,915.925,VALID,0,VALID,100,VALID,-0.0169808,VALID,18.3959,VALID,133,VALID,1.12138,
2008-08-15, 03:37:00,VALID,915.929,VALID,0,VALID,100,VALID,-0.0339617,VALID,18.4089,VALID,135,VALID,0.718932,
2008-08-15, 03:38:00,VALID,915.915,VALID,0,VALID,100,VALID,-0.0339617,VALID,18.4156,VALID,137,VALID,0.766555,
2008-08-15, 03:39:00,VALID,915.917,VALID,0,VALID,100,VALID,0,VALID,18.4094,VALID,148,VALID,0.963844,
2008-08-15, 03:40:00,VALID,915.912,VALID,0,VALID,100,VALID,-0.0339617,VALID,18.4059,VALID,164,VALID,0.65696,
2008-08-15, 03:41:00,VALID,915.921,VALID,0,VALID,100,VALID,-0.0339617,VALID,18.3934,VALID,161,VALID,0.713034,
2008-08-15, 03:42:00,VALID,915.919,VALID,0,VALID,100,VALID,-0.0339617,VALID,18.3642,VALID,153,VALID,0.768945,
2008-08-15, 03:43:00,VALID,915.924,VALID,0,VALID,100,VALID,-0.0509425,VALID,18.3283,VALID,153,VALID,0.81907,
2008-08-15, 03:44:00,VALID,915.915,VALID,0,VALID,100,VALID,-0.0509425,VALID,18.3054,VALID,149,VALID,0.794829,
2008-08-15, 03:45:00,VALID,915.906,VALID,0,VALID,100,VALID,-0.0169808,VALID,18.2824,VALID,138,VALID,0.955611,
2008-08-15, 03:46:00,VALID,915.896,VALID,0,VALID,100,VALID,-0.0169808,VALID,18.26,VALID,134,VALID,1.25968,
2008-08-15, 03:47:00,VALID,915.891,VALID,0,VALID,100,VALID,-0.0339617,VALID,18.2468,VALID,133,VALID,1.00917,
2008-08-15, 03:48:00,VALID,915.891,VALID,0,VALID,100,VALID,-0.0169808,VALID,18.2312,VALID,130,VALID,0.941964,
2008-08-15, 03:49:00,VALID,915.886,VALID,0,VALID,100,VALID,-0.0169808,VALID,18.2141,VALID,147,VALID,1.19817,
2008-08-15, 03:50:00,VALID,915.887,VALID,0,VALID,100,VALID,-0.0339617,VALID,18.2046,VALID,157,VALID,0.863917,
2008-08-15, 03:51:00,VALID,915.883,VALID,0,VALID,100,VALID,-0.0169808,VALID,18.2046,VALID,127,VALID,0.835565,